Year,Month,Day,Hour,Minute,Value (Times are PST for temperature in C)
2018,05,31,00,00,10.00
2018,05,31,00,01,10.00
2018,05,31,00,02,10.00
2018,05,31,00,03,10.00
2018,05,31,00,04,9.90
2018,05,31,00,05,9.90
2018,05,31,00,06,9.90
2018,05,31,00,07,9.90
2018,05,31,00,08,9.90
2018,05,31,00,09,9.90
2018,05,31,00,10,9.90
2018,05,31,00,11,9.90
2018,05,31,00,12,9.80
2018,05,31,00,13,9.80
2018,05,31,00,14,9.80
2018,05,31,00,15,9.80
2018,05,31,00,16,9.80
2018,05,31,00,17,9.80
2018,05,31,00,18,9.80
2018,05,31,00,19,9.80
2018,05,31,00,20,9.70
2018,05,31,00,21,9.70
2018,05,31,00,22,9.70
2018,05,31,00,23,9.70
2018,05,31,00,24,9.70
2018,05,31,00,25,9.70
2018,05,31,00,26,9.70
2018,05,31,00,27,9.70
2018,05,31,00,28,9.70
2018,05,31,00,29,9.70
2018,05,31,00,30,9.70
2018,05,31,00,31,9.70
2018,05,31,00,32,9.70
2018,05,31,00,33,9.70
2018,05,31,00,34,9.60
2018,05,31,00,35,9.60
2018,05,31,00,36,9.60
2018,05,31,00,37,9.60
2018,05,31,00,38,9.60
2018,05,31,00,39,9.60
2018,05,31,00,40,9.60
2018,05,31,00,41,9.60
2018,05,31,00,42,9.60
2018,05,31,00,43,9.60
2018,05,31,00,44,9.50
2018,05,31,00,45,9.50
2018,05,31,00,46,9.50
2018,05,31,00,47,9.50
2018,05,31,00,48,9.50
2018,05,31,00,49,9.50
2018,05,31,00,50,9.50
2018,05,31,00,51,9.40
2018,05,31,00,52,9.40
2018,05,31,00,53,9.40
2018,05,31,00,54,9.40
2018,05,31,00,55,9.40
2018,05,31,00,56,9.40
2018,05,31,00,57,9.40
2018,05,31,00,58,9.40
2018,05,31,00,59,9.40
2018,05,31,01,00,9.40
2018,05,31,01,01,9.40
2018,05,31,01,02,9.40
2018,05,31,01,03,9.40
2018,05,31,01,04,9.40
2018,05,31,01,05,9.40
2018,05,31,01,06,9.40
2018,05,31,01,07,9.40
2018,05,31,01,08,9.40
2018,05,31,01,09,9.40
2018,05,31,01,10,9.30
2018,05,31,01,11,9.30
2018,05,31,01,12,9.30
2018,05,31,01,13,9.30
2018,05,31,01,14,9.30
2018,05,31,01,15,9.30
2018,05,31,01,16,9.30
2018,05,31,01,17,9.30
2018,05,31,01,18,9.30
2018,05,31,01,19,9.30
2018,05,31,01,20,9.30
2018,05,31,01,21,9.30
2018,05,31,01,22,9.30
2018,05,31,01,23,9.30
2018,05,31,01,24,9.30
2018,05,31,01,25,9.30
2018,05,31,01,26,9.30
2018,05,31,01,27,9.30
2018,05,31,01,28,9.30
2018,05,31,01,29,9.30
2018,05,31,01,30,9.30
2018,05,31,01,31,9.30
2018,05,31,01,32,9.30
2018,05,31,01,33,9.30
2018,05,31,01,34,9.30
2018,05,31,01,35,9.40
2018,05,31,01,36,9.40
2018,05,31,01,37,9.40
2018,05,31,01,38,9.40
2018,05,31,01,39,9.40
2018,05,31,01,40,9.40
2018,05,31,01,41,9.40
2018,05,31,01,42,9.40
2018,05,31,01,43,9.40
2018,05,31,01,44,9.40
2018,05,31,01,45,9.40
2018,05,31,01,46,9.40
2018,05,31,01,47,9.40
2018,05,31,01,48,9.40
2018,05,31,01,49,9.40
2018,05,31,01,50,9.50
2018,05,31,01,51,9.50
2018,05,31,01,52,9.50
2018,05,31,01,53,9.50
2018,05,31,01,54,9.50
2018,05,31,01,55,9.50
2018,05,31,01,56,9.50
2018,05,31,01,57,9.60
2018,05,31,01,58,9.60
2018,05,31,01,59,9.60
2018,05,31,02,00,9.60
2018,05,31,02,01,9.60
2018,05,31,02,02,9.60
2018,05,31,02,03,9.60
2018,05,31,02,04,9.60
2018,05,31,02,05,9.60
2018,05,31,02,06,9.60
2018,05,31,02,07,9.60
2018,05,31,02,08,9.70
2018,05,31,02,09,9.70
2018,05,31,02,10,9.70
2018,05,31,02,11,9.70
2018,05,31,02,12,9.70
2018,05,31,02,13,9.70
2018,05,31,02,14,9.70
2018,05,31,02,15,9.70
2018,05,31,02,16,9.70
2018,05,31,02,17,9.70
2018,05,31,02,18,9.70
2018,05,31,02,19,9.70
2018,05,31,02,20,9.70
2018,05,31,02,21,9.70
2018,05,31,02,22,9.70
2018,05,31,02,23,9.70
2018,05,31,02,24,9.70
2018,05,31,02,25,9.70
2018,05,31,02,26,9.70
2018,05,31,02,27,9.70
2018,05,31,02,28,9.70
2018,05,31,02,29,9.70
2018,05,31,02,30,9.70
2018,05,31,02,31,9.70
2018,05,31,02,32,9.70
2018,05,31,02,33,9.70
2018,05,31,02,34,9.70
2018,05,31,02,35,9.70
2018,05,31,02,36,9.70
2018,05,31,02,37,9.70
2018,05,31,02,38,9.70
2018,05,31,02,39,9.70
2018,05,31,02,40,9.70
2018,05,31,02,41,9.70
2018,05,31,02,42,9.70
2018,05,31,02,43,9.70
2018,05,31,02,44,9.70
2018,05,31,02,45,9.70
2018,05,31,02,46,9.70
2018,05,31,02,47,9.70
2018,05,31,02,48,9.70
2018,05,31,02,49,9.70
2018,05,31,02,50,9.70
2018,05,31,02,51,9.70
2018,05,31,02,52,9.70
2018,05,31,02,53,9.70
2018,05,31,02,54,9.70
2018,05,31,02,55,9.70
2018,05,31,02,56,9.70
2018,05,31,02,57,9.70
2018,05,31,02,58,9.70
2018,05,31,02,59,9.70
2018,05,31,03,00,9.70
2018,05,31,03,01,9.70
2018,05,31,03,02,9.70
2018,05,31,03,03,9.70
2018,05,31,03,04,9.70
2018,05,31,03,05,9.70
2018,05,31,03,06,9.70
2018,05,31,03,07,9.70
2018,05,31,03,08,9.70
2018,05,31,03,09,9.70
2018,05,31,03,10,9.70
2018,05,31,03,11,9.70
2018,05,31,03,12,9.70
2018,05,31,03,13,9.70
2018,05,31,03,14,9.70
2018,05,31,03,15,9.70
2018,05,31,03,16,9.70
2018,05,31,03,17,9.60
2018,05,31,03,18,9.60
2018,05,31,03,19,9.60
2018,05,31,03,20,9.60
2018,05,31,03,21,9.60
2018,05,31,03,22,9.60
2018,05,31,03,23,9.60
2018,05,31,03,24,9.60
2018,05,31,03,25,9.60
2018,05,31,03,26,9.60
2018,05,31,03,27,9.60
2018,05,31,03,28,9.60
2018,05,31,03,29,9.60
2018,05,31,03,30,9.60
2018,05,31,03,31,9.60
2018,05,31,03,32,9.60
2018,05,31,03,33,9.60
2018,05,31,03,34,9.60
2018,05,31,03,35,9.60
2018,05,31,03,36,9.60
2018,05,31,03,37,9.60
2018,05,31,03,38,9.60
2018,05,31,03,39,9.60
2018,05,31,03,40,9.60
2018,05,31,03,41,9.60
2018,05,31,03,42,9.50
2018,05,31,03,43,9.50
2018,05,31,03,44,9.50
2018,05,31,03,45,9.50
2018,05,31,03,46,9.50
2018,05,31,03,47,9.50
2018,05,31,03,48,9.50
2018,05,31,03,49,9.50
2018,05,31,03,50,9.50
2018,05,31,03,51,9.50
2018,05,31,03,52,9.50
2018,05,31,03,53,9.50
2018,05,31,03,54,9.50
2018,05,31,03,55,9.50
2018,05,31,03,56,9.50
2018,05,31,03,57,9.50
2018,05,31,03,58,9.50
2018,05,31,03,59,9.50
2018,05,31,04,00,9.50
2018,05,31,04,01,9.50
2018,05,31,04,02,9.50
2018,05,31,04,03,9.50
2018,05,31,04,04,9.50
2018,05,31,04,05,9.50
2018,05,31,04,06,9.50
2018,05,31,04,07,9.50
2018,05,31,04,08,9.50
2018,05,31,04,09,9.50
2018,05,31,04,10,9.50
2018,05,31,04,11,9.50
2018,05,31,04,12,9.50
2018,05,31,04,13,9.50
2018,05,31,04,14,9.50
2018,05,31,04,15,9.50
2018,05,31,04,16,9.50
2018,05,31,04,17,9.50
2018,05,31,04,18,9.50
2018,05,31,04,19,9.50
2018,05,31,04,20,9.50
2018,05,31,04,21,9.60
2018,05,31,04,22,9.60
2018,05,31,04,23,9.60
2018,05,31,04,24,9.60
2018,05,31,04,25,9.60
2018,05,31,04,26,9.60
2018,05,31,04,27,9.60
2018,05,31,04,28,9.60
2018,05,31,04,29,9.60
2018,05,31,04,30,9.60
2018,05,31,04,31,9.60
2018,05,31,04,32,9.60
2018,05,31,04,33,9.60
2018,05,31,04,34,9.60
2018,05,31,04,35,9.70
2018,05,31,04,36,9.70
2018,05,31,04,37,9.70
2018,05,31,04,38,9.70
2018,05,31,04,39,9.80
2018,05,31,04,40,9.80
2018,05,31,04,41,9.80
2018,05,31,04,42,9.80
2018,05,31,04,43,9.80
2018,05,31,04,44,9.80
2018,05,31,04,45,9.80
2018,05,31,04,46,9.80
2018,05,31,04,47,9.90
2018,05,31,04,48,9.90
2018,05,31,04,49,9.90
2018,05,31,04,50,9.90
2018,05,31,04,51,9.90
2018,05,31,04,52,9.90
2018,05,31,04,53,9.90
2018,05,31,04,54,10.00
2018,05,31,04,55,10.00
2018,05,31,04,56,10.00
2018,05,31,04,57,10.00
2018,05,31,04,58,10.00
2018,05,31,04,59,10.00
2018,05,31,05,00,10.00
2018,05,31,05,01,10.00
2018,05,31,05,02,10.00
2018,05,31,05,03,10.10
2018,05,31,05,04,10.10
2018,05,31,05,05,10.10
2018,05,31,05,06,10.10
2018,05,31,05,07,10.10
2018,05,31,05,08,10.10
2018,05,31,05,09,10.10
2018,05,31,05,10,10.10
2018,05,31,05,11,10.10
2018,05,31,05,12,10.10
2018,05,31,05,13,10.10
2018,05,31,05,14,10.10
2018,05,31,05,15,10.10
2018,05,31,05,16,10.10
2018,05,31,05,17,10.10
2018,05,31,05,18,10.10
2018,05,31,05,19,10.10
2018,05,31,05,20,10.10
2018,05,31,05,21,10.10
2018,05,31,05,22,10.10
2018,05,31,05,23,10.10
2018,05,31,05,24,10.10
2018,05,31,05,25,10.10
2018,05,31,05,26,10.10
2018,05,31,05,27,10.10
2018,05,31,05,28,10.10
2018,05,31,05,29,10.10
2018,05,31,05,30,10.10
2018,05,31,05,31,10.10
2018,05,31,05,32,10.10
2018,05,31,05,33,10.10
2018,05,31,05,34,10.10
2018,05,31,05,35,10.10
2018,05,31,05,36,10.10
2018,05,31,05,37,10.10
2018,05,31,05,38,10.10
2018,05,31,05,39,10.10
2018,05,31,05,40,10.10
2018,05,31,05,41,10.10
2018,05,31,05,42,10.10
2018,05,31,05,43,10.10
2018,05,31,05,44,10.10
2018,05,31,05,45,10.10
2018,05,31,05,46,10.10
2018,05,31,05,47,10.20
2018,05,31,05,48,10.10
2018,05,31,05,49,10.10
2018,05,31,05,50,10.10
2018,05,31,05,51,10.10
2018,05,31,05,52,10.10
2018,05,31,05,53,10.10
2018,05,31,05,54,10.10
2018,05,31,05,55,10.10
2018,05,31,05,56,10.10
2018,05,31,05,57,10.10
2018,05,31,05,58,10.10
2018,05,31,05,59,10.10
2018,05,31,06,00,10.10
2018,05,31,06,01,10.10
2018,05,31,06,02,10.10
2018,05,31,06,03,10.10
2018,05,31,06,04,10.10
2018,05,31,06,05,10.10
2018,05,31,06,06,10.10
2018,05,31,06,07,10.10
2018,05,31,06,08,10.10
2018,05,31,06,09,10.10
2018,05,31,06,10,10.10
2018,05,31,06,11,10.20
2018,05,31,06,12,10.20
2018,05,31,06,13,10.20
2018,05,31,06,14,10.20
2018,05,31,06,15,10.20
2018,05,31,06,16,10.20
2018,05,31,06,17,10.20
2018,05,31,06,18,10.20
2018,05,31,06,19,10.20
2018,05,31,06,20,10.20
2018,05,31,06,21,10.20
2018,05,31,06,22,10.20
2018,05,31,06,23,10.20
2018,05,31,06,24,10.20
2018,05,31,06,25,10.20
2018,05,31,06,26,10.20
2018,05,31,06,27,10.20
2018,05,31,06,28,10.20
2018,05,31,06,29,10.20
2018,05,31,06,30,10.20
2018,05,31,06,31,10.20
2018,05,31,06,32,10.20
2018,05,31,06,33,10.20
2018,05,31,06,34,10.20
2018,05,31,06,35,10.20
2018,05,31,06,36,10.20
2018,05,31,06,37,10.20
2018,05,31,06,38,10.20
2018,05,31,06,39,10.30
2018,05,31,06,40,10.30
2018,05,31,06,41,10.30
2018,05,31,06,42,10.30
2018,05,31,06,43,10.30
2018,05,31,06,44,10.30
2018,05,31,06,45,10.30
2018,05,31,06,46,10.30
2018,05,31,06,47,10.30
2018,05,31,06,48,10.30
2018,05,31,06,49,10.30
2018,05,31,06,50,10.30
2018,05,31,06,51,10.30
2018,05,31,06,52,10.30
2018,05,31,06,53,10.30
2018,05,31,06,54,10.30
2018,05,31,06,55,10.30
2018,05,31,06,56,10.40
2018,05,31,06,57,10.40
2018,05,31,06,58,10.40
2018,05,31,06,59,10.40
2018,05,31,07,00,10.40
2018,05,31,07,01,10.40
2018,05,31,07,02,10.40
2018,05,31,07,03,10.40
2018,05,31,07,04,10.40
2018,05,31,07,05,10.40
2018,05,31,07,06,10.40
2018,05,31,07,07,10.40
2018,05,31,07,08,10.40
2018,05,31,07,09,10.50
2018,05,31,07,10,10.50
2018,05,31,07,11,10.50
2018,05,31,07,12,10.60
2018,05,31,07,13,10.60
2018,05,31,07,14,10.60
2018,05,31,07,15,10.60
2018,05,31,07,16,10.60
2018,05,31,07,17,10.70
2018,05,31,07,18,10.70
2018,05,31,07,19,10.70
2018,05,31,07,20,10.70
2018,05,31,07,21,10.70
2018,05,31,07,22,10.70
2018,05,31,07,23,10.70
2018,05,31,07,24,10.70
2018,05,31,07,25,10.80
2018,05,31,07,26,10.80
2018,05,31,07,27,10.80
2018,05,31,07,28,10.80
2018,05,31,07,29,10.80
2018,05,31,07,30,10.80
2018,05,31,07,31,10.90
2018,05,31,07,32,10.90
2018,05,31,07,33,10.90
2018,05,31,07,34,11.00
2018,05,31,07,35,11.00
2018,05,31,07,36,11.00
2018,05,31,07,37,11.10
2018,05,31,07,38,11.10
2018,05,31,07,39,11.10
2018,05,31,07,40,11.10
2018,05,31,07,41,11.10
2018,05,31,07,42,11.20
2018,05,31,07,43,11.20
2018,05,31,07,44,11.20
2018,05,31,07,45,11.20
2018,05,31,07,46,11.20
2018,05,31,07,47,11.20
2018,05,31,07,48,11.30
2018,05,31,07,49,11.30
2018,05,31,07,50,11.30
2018,05,31,07,51,11.30
2018,05,31,07,52,11.30
2018,05,31,07,53,11.30
2018,05,31,07,54,11.40
2018,05,31,07,55,11.40
2018,05,31,07,56,11.40
2018,05,31,07,57,11.40
2018,05,31,07,58,11.40
2018,05,31,07,59,11.40
2018,05,31,08,00,11.50
2018,05,31,08,01,11.50
2018,05,31,08,02,11.50
2018,05,31,08,03,11.50
2018,05,31,08,04,11.50
2018,05,31,08,05,11.60
2018,05,31,08,06,11.60
2018,05,31,08,07,11.60
2018,05,31,08,08,11.60
2018,05,31,08,09,11.60
2018,05,31,08,10,11.60
2018,05,31,08,11,11.60
2018,05,31,08,12,11.60
2018,05,31,08,13,11.60
2018,05,31,08,14,11.70
2018,05,31,08,15,11.70
2018,05,31,08,16,11.70
2018,05,31,08,17,11.70
2018,05,31,08,18,11.70
2018,05,31,08,19,11.70
2018,05,31,08,20,11.70
2018,05,31,08,21,11.70
2018,05,31,08,22,11.70
2018,05,31,08,23,11.70
2018,05,31,08,24,11.70
2018,05,31,08,25,11.70
2018,05,31,08,26,11.70
2018,05,31,08,27,11.70
2018,05,31,08,28,11.70
2018,05,31,08,29,11.80
2018,05,31,08,30,11.80
2018,05,31,08,31,11.80
2018,05,31,08,32,11.80
2018,05,31,08,33,11.80
2018,05,31,08,34,11.80
2018,05,31,08,35,11.80
2018,05,31,08,36,11.80
2018,05,31,08,37,11.80
2018,05,31,08,38,11.80
2018,05,31,08,39,11.80
2018,05,31,08,40,11.90
2018,05,31,08,41,11.90
2018,05,31,08,42,11.90
2018,05,31,08,43,11.90
2018,05,31,08,44,12.00
2018,05,31,08,45,12.00
2018,05,31,08,46,12.00
2018,05,31,08,47,12.00
2018,05,31,08,48,12.10
2018,05,31,08,49,12.10
2018,05,31,08,50,12.10
2018,05,31,08,51,12.10
2018,05,31,08,52,12.20
2018,05,31,08,53,12.20
2018,05,31,08,54,12.20
2018,05,31,08,55,12.20
2018,05,31,08,56,12.20
2018,05,31,08,57,12.20
2018,05,31,08,58,12.30
2018,05,31,08,59,12.30
2018,05,31,09,00,12.30
2018,05,31,09,01,12.30
2018,05,31,09,02,12.30
2018,05,31,09,03,12.30
2018,05,31,09,04,12.30
2018,05,31,09,05,12.40
2018,05,31,09,06,12.40
2018,05,31,09,07,12.40
2018,05,31,09,08,12.50
2018,05,31,09,09,12.50
2018,05,31,09,10,12.50
2018,05,31,09,11,12.60
2018,05,31,09,12,12.60
2018,05,31,09,13,12.60
2018,05,31,09,14,12.70
2018,05,31,09,15,12.70
2018,05,31,09,16,12.70
2018,05,31,09,17,12.70
2018,05,31,09,18,12.80
2018,05,31,09,19,12.80
2018,05,31,09,20,12.80
2018,05,31,09,21,12.80
2018,05,31,09,22,12.90
2018,05,31,09,23,12.90
2018,05,31,09,24,12.90
2018,05,31,09,25,12.90
2018,05,31,09,26,13.00
2018,05,31,09,27,13.00
2018,05,31,09,28,13.00
2018,05,31,09,29,13.00
2018,05,31,09,30,13.00
2018,05,31,09,31,13.10
2018,05,31,09,32,13.10
2018,05,31,09,33,13.10
2018,05,31,09,34,13.10
2018,05,31,09,35,13.10
2018,05,31,09,36,13.10
2018,05,31,09,37,13.10
2018,05,31,09,38,13.20
2018,05,31,09,39,13.20
2018,05,31,09,40,13.20
2018,05,31,09,41,13.20
2018,05,31,09,42,13.20
2018,05,31,09,43,13.20
2018,05,31,09,44,13.20
2018,05,31,09,45,13.30
2018,05,31,09,46,13.30
2018,05,31,09,47,13.30
2018,05,31,09,48,13.30
2018,05,31,09,49,13.30
2018,05,31,09,50,13.30
2018,05,31,09,51,13.30
2018,05,31,09,52,13.30
2018,05,31,09,53,13.30
2018,05,31,09,54,13.30
2018,05,31,09,55,13.30
2018,05,31,09,56,13.30
2018,05,31,09,57,13.30
2018,05,31,09,58,13.30
2018,05,31,09,59,13.30
2018,05,31,10,00,13.30
2018,05,31,10,01,13.30
2018,05,31,10,02,13.30
2018,05,31,10,03,13.30
2018,05,31,10,04,13.30
2018,05,31,10,05,13.30
2018,05,31,10,06,13.40
2018,05,31,10,07,13.40
2018,05,31,10,08,13.40
2018,05,31,10,09,13.40
2018,05,31,10,10,13.40
2018,05,31,10,11,13.50
2018,05,31,10,12,13.50
2018,05,31,10,13,13.50
2018,05,31,10,14,13.60
2018,05,31,10,15,13.60
2018,05,31,10,16,13.60
2018,05,31,10,17,13.60
2018,05,31,10,18,13.70
2018,05,31,10,19,13.70
2018,05,31,10,20,13.70
2018,05,31,10,21,13.70
2018,05,31,10,22,13.70
2018,05,31,10,23,13.70
2018,05,31,10,24,13.70
2018,05,31,10,25,13.70
2018,05,31,10,26,13.70
2018,05,31,10,27,13.70
2018,05,31,10,28,13.70
2018,05,31,10,29,13.70
2018,05,31,10,30,13.70
2018,05,31,10,31,13.60
2018,05,31,10,32,13.60
2018,05,31,10,33,13.60
2018,05,31,10,34,13.60
2018,05,31,10,35,13.60
2018,05,31,10,36,13.60
2018,05,31,10,37,13.60
2018,05,31,10,38,13.60
2018,05,31,10,39,13.60
2018,05,31,10,40,13.60
2018,05,31,10,41,13.70
2018,05,31,10,42,13.70
2018,05,31,10,43,13.70
2018,05,31,10,44,13.70
2018,05,31,10,45,13.70
2018,05,31,10,46,13.70
2018,05,31,10,47,13.80
2018,05,31,10,48,13.80
2018,05,31,10,49,13.80
2018,05,31,10,50,13.80
2018,05,31,10,51,13.80
2018,05,31,10,52,13.90
2018,05,31,10,53,13.90
2018,05,31,10,54,13.90
2018,05,31,10,55,13.90
2018,05,31,10,56,13.90
2018,05,31,10,57,13.90
2018,05,31,10,58,13.90
2018,05,31,10,59,14.00
2018,05,31,11,00,14.00
2018,05,31,11,01,14.00
2018,05,31,11,02,14.00
2018,05,31,11,03,14.00
2018,05,31,11,04,14.10
2018,05,31,11,05,14.10
2018,05,31,11,06,14.10
2018,05,31,11,07,14.10
2018,05,31,11,08,14.20
2018,05,31,11,09,14.20
2018,05,31,11,10,14.20
2018,05,31,11,11,14.20
2018,05,31,11,12,14.30
2018,05,31,11,13,14.30
2018,05,31,11,14,14.30
2018,05,31,11,15,14.30
2018,05,31,11,16,14.30
2018,05,31,11,17,14.40
2018,05,31,11,18,14.40
2018,05,31,11,19,14.50
2018,05,31,11,20,14.50
2018,05,31,11,21,14.60
2018,05,31,11,22,14.60
2018,05,31,11,23,14.70
2018,05,31,11,24,14.70
2018,05,31,11,25,14.70
2018,05,31,11,26,14.70
2018,05,31,11,27,14.70
2018,05,31,11,28,14.70
2018,05,31,11,29,14.70
2018,05,31,11,30,14.70
2018,05,31,11,31,14.70
2018,05,31,11,32,14.70
2018,05,31,11,33,14.70
2018,05,31,11,34,14.70
2018,05,31,11,35,14.70
2018,05,31,11,36,14.70
2018,05,31,11,37,14.70
2018,05,31,11,38,14.70
2018,05,31,11,39,14.70
2018,05,31,11,40,14.70
2018,05,31,11,41,14.70
2018,05,31,11,42,14.70
2018,05,31,11,43,14.70
2018,05,31,11,44,14.60
2018,05,31,11,45,14.60
2018,05,31,11,46,14.60
2018,05,31,11,47,14.60
2018,05,31,11,48,14.60
2018,05,31,11,49,14.60
2018,05,31,11,50,14.60
2018,05,31,11,51,14.60
2018,05,31,11,52,14.60
2018,05,31,11,53,14.70
2018,05,31,11,54,14.70
2018,05,31,11,55,14.70
2018,05,31,11,56,14.80
2018,05,31,11,57,14.80
2018,05,31,11,58,14.80
2018,05,31,11,59,14.80
2018,05,31,12,00,14.80
2018,05,31,12,01,14.80
2018,05,31,12,02,14.80
2018,05,31,12,03,14.80
2018,05,31,12,04,14.80
2018,05,31,12,05,14.80
2018,05,31,12,06,14.90
2018,05,31,12,07,14.90
2018,05,31,12,08,14.90
2018,05,31,12,09,14.90
2018,05,31,12,10,14.90
2018,05,31,12,11,14.90
2018,05,31,12,12,14.90
2018,05,31,12,13,15.00
2018,05,31,12,14,15.00
2018,05,31,12,15,15.00
2018,05,31,12,16,15.10
2018,05,31,12,17,15.10
2018,05,31,12,18,15.10
2018,05,31,12,19,15.20
2018,05,31,12,20,15.20
2018,05,31,12,21,15.20
2018,05,31,12,22,15.30
2018,05,31,12,23,15.40
2018,05,31,12,24,15.50
2018,05,31,12,25,15.60
2018,05,31,12,26,15.70
2018,05,31,12,27,15.70
2018,05,31,12,28,15.80
2018,05,31,12,29,15.90
2018,05,31,12,30,15.90
2018,05,31,12,31,16.00
2018,05,31,12,32,16.00
2018,05,31,12,33,16.10
2018,05,31,12,34,16.20
2018,05,31,12,35,16.20
2018,05,31,12,36,16.30
2018,05,31,12,37,16.30
2018,05,31,12,38,16.30
2018,05,31,12,39,16.30
2018,05,31,12,40,16.20
2018,05,31,12,41,16.20
2018,05,31,12,42,16.20
2018,05,31,12,43,16.20
2018,05,31,12,44,16.20
2018,05,31,12,45,16.20
2018,05,31,12,46,16.20
2018,05,31,12,47,16.20
2018,05,31,12,48,16.20
2018,05,31,12,49,16.20
2018,05,31,12,50,16.30
2018,05,31,12,51,16.30
2018,05,31,12,52,16.30
2018,05,31,12,53,16.40
2018,05,31,12,54,16.40
2018,05,31,12,55,16.50
2018,05,31,12,56,16.60
2018,05,31,12,57,16.60
2018,05,31,12,58,16.70
2018,05,31,12,59,16.70
2018,05,31,13,00,16.80
2018,05,31,13,01,16.80
2018,05,31,13,02,16.90
2018,05,31,13,03,16.90
2018,05,31,13,04,17.00
2018,05,31,13,05,17.00
2018,05,31,13,06,17.00
2018,05,31,13,07,17.00
2018,05,31,13,08,17.00
2018,05,31,13,09,17.10
2018,05,31,13,10,17.10
2018,05,31,13,11,17.10
2018,05,31,13,12,17.20
2018,05,31,13,13,17.20
2018,05,31,13,14,17.30
2018,05,31,13,15,17.30
2018,05,31,13,16,17.40
2018,05,31,13,17,17.40
2018,05,31,13,18,17.50
2018,05,31,13,19,17.50
2018,05,31,13,20,17.50
2018,05,31,13,21,17.50
2018,05,31,13,22,17.50
2018,05,31,13,23,17.60
2018,05,31,13,24,17.60
2018,05,31,13,25,17.60
2018,05,31,13,26,17.70
2018,05,31,13,27,17.70
2018,05,31,13,28,17.70
2018,05,31,13,29,17.80
2018,05,31,13,30,17.70
2018,05,31,13,31,17.70
2018,05,31,13,32,17.60
2018,05,31,13,33,17.60
2018,05,31,13,34,17.60
2018,05,31,13,35,17.50
2018,05,31,13,36,17.50
2018,05,31,13,37,17.40
2018,05,31,13,38,17.40
2018,05,31,13,39,17.30
2018,05,31,13,40,17.30
2018,05,31,13,41,17.30
2018,05,31,13,42,17.30
2018,05,31,13,43,17.30
2018,05,31,13,44,17.30
2018,05,31,13,45,17.30
2018,05,31,13,46,17.30
2018,05,31,13,47,17.30
2018,05,31,13,48,17.30
2018,05,31,13,49,17.30
2018,05,31,13,50,17.30
2018,05,31,13,51,17.30
2018,05,31,13,52,17.30
2018,05,31,13,53,17.30
2018,05,31,13,54,17.30
2018,05,31,13,55,17.40
2018,05,31,13,56,17.40
2018,05,31,13,57,17.50
2018,05,31,13,58,17.60
2018,05,31,13,59,17.70
2018,05,31,14,00,17.90
2018,05,31,14,01,18.00
2018,05,31,14,02,18.10
2018,05,31,14,03,18.10
2018,05,31,14,04,18.10
2018,05,31,14,05,18.20
2018,05,31,14,06,18.20
2018,05,31,14,07,18.20
2018,05,31,14,08,18.20
2018,05,31,14,09,18.20
2018,05,31,14,10,18.30
2018,05,31,14,11,18.30
2018,05,31,14,12,18.30
2018,05,31,14,13,18.30
2018,05,31,14,14,18.30
2018,05,31,14,15,18.30
2018,05,31,14,16,18.20
2018,05,31,14,17,18.20
2018,05,31,14,18,18.20
2018,05,31,14,19,18.10
2018,05,31,14,20,18.10
2018,05,31,14,21,18.00
2018,05,31,14,22,18.00
2018,05,31,14,23,18.00
2018,05,31,14,24,18.00
2018,05,31,14,25,18.00
2018,05,31,14,26,18.10
2018,05,31,14,27,18.10
2018,05,31,14,28,18.10
2018,05,31,14,29,18.20
2018,05,31,14,30,18.20
2018,05,31,14,31,18.20
2018,05,31,14,32,18.20
2018,05,31,14,33,18.20
2018,05,31,14,34,18.20
2018,05,31,14,35,18.20
2018,05,31,14,36,18.10
2018,05,31,14,37,18.00
2018,05,31,14,38,17.90
2018,05,31,14,39,17.80
2018,05,31,14,40,17.80
2018,05,31,14,41,17.80
2018,05,31,14,42,17.80
2018,05,31,14,43,17.80
2018,05,31,14,44,17.80
2018,05,31,14,45,17.90
2018,05,31,14,46,17.90
2018,05,31,14,47,18.00
2018,05,31,14,48,18.00
2018,05,31,14,49,18.10
2018,05,31,14,50,18.10
2018,05,31,14,51,18.00
2018,05,31,14,52,17.90
2018,05,31,14,53,17.80
2018,05,31,14,54,17.80
2018,05,31,14,55,17.80
2018,05,31,14,56,17.90
2018,05,31,14,57,17.90
2018,05,31,14,58,18.00
2018,05,31,14,59,18.00
2018,05,31,15,00,18.10
2018,05,31,15,01,18.10
2018,05,31,15,02,18.10
2018,05,31,15,03,18.20
2018,05,31,15,04,18.20
2018,05,31,15,05,18.30
2018,05,31,15,06,18.30
2018,05,31,15,07,18.30
2018,05,31,15,08,18.30
2018,05,31,15,09,18.30
2018,05,31,15,10,18.20
2018,05,31,15,11,18.20
2018,05,31,15,12,18.20
2018,05,31,15,13,18.20
2018,05,31,15,14,18.10
2018,05,31,15,15,18.10
2018,05,31,15,16,18.10
2018,05,31,15,17,18.20
2018,05,31,15,18,18.20
2018,05,31,15,19,18.20
2018,05,31,15,20,18.20
2018,05,31,15,21,18.20
2018,05,31,15,22,18.20
2018,05,31,15,23,18.30
2018,05,31,15,24,18.30
2018,05,31,15,25,18.30
2018,05,31,15,26,18.30
2018,05,31,15,27,18.30
2018,05,31,15,28,18.40
2018,05,31,15,29,18.40
2018,05,31,15,30,18.40
2018,05,31,15,31,18.40
2018,05,31,15,32,18.40
2018,05,31,15,33,18.50
2018,05,31,15,34,18.50
2018,05,31,15,35,18.50
2018,05,31,15,36,18.50
2018,05,31,15,37,18.50
2018,05,31,15,38,18.50
2018,05,31,15,39,18.40
2018,05,31,15,40,18.40
2018,05,31,15,41,18.40
2018,05,31,15,42,18.30
2018,05,31,15,43,18.30
2018,05,31,15,44,18.30
2018,05,31,15,45,18.30
2018,05,31,15,46,18.30
2018,05,31,15,47,18.30
2018,05,31,15,48,18.30
2018,05,31,15,49,18.40
2018,05,31,15,50,18.40
2018,05,31,15,51,18.50
2018,05,31,15,52,18.50
2018,05,31,15,53,18.50
2018,05,31,15,54,18.40
2018,05,31,15,55,18.40
2018,05,31,15,56,18.40
2018,05,31,15,57,18.40
2018,05,31,15,58,18.40
2018,05,31,15,59,18.40
2018,05,31,16,00,18.50
2018,05,31,16,01,18.60
2018,05,31,16,02,18.70
2018,05,31,16,03,18.70
2018,05,31,16,04,18.70
2018,05,31,16,05,18.80
2018,05,31,16,06,18.80
2018,05,31,16,07,18.90
2018,05,31,16,08,18.90
2018,05,31,16,09,19.00
2018,05,31,16,10,19.00
2018,05,31,16,11,19.00
2018,05,31,16,12,19.10
2018,05,31,16,13,19.00
2018,05,31,16,14,19.00
2018,05,31,16,15,18.90
2018,05,31,16,16,18.80
2018,05,31,16,17,18.70
2018,05,31,16,18,18.60
2018,05,31,16,19,18.40
2018,05,31,16,20,18.20
2018,05,31,16,21,18.10
2018,05,31,16,22,18.00
2018,05,31,16,23,17.90
2018,05,31,16,24,17.80
2018,05,31,16,25,17.80
2018,05,31,16,26,17.80
2018,05,31,16,27,17.80
2018,05,31,16,28,17.80
2018,05,31,16,29,17.90
2018,05,31,16,30,17.90
2018,05,31,16,31,18.00
2018,05,31,16,32,18.10
2018,05,31,16,33,18.20
2018,05,31,16,34,18.20
2018,05,31,16,35,18.30
2018,05,31,16,36,18.40
2018,05,31,16,37,18.50
2018,05,31,16,38,18.60
2018,05,31,16,39,18.80
2018,05,31,16,40,18.80
2018,05,31,16,41,18.80
2018,05,31,16,42,18.70
2018,05,31,16,43,18.60
2018,05,31,16,44,18.50
2018,05,31,16,45,18.50
2018,05,31,16,46,18.50
2018,05,31,16,47,18.50
2018,05,31,16,48,18.50
2018,05,31,16,49,18.50
2018,05,31,16,50,18.60
2018,05,31,16,51,18.60
2018,05,31,16,52,18.70
2018,05,31,16,53,18.60
2018,05,31,16,54,18.60
2018,05,31,16,55,18.60
2018,05,31,16,56,18.50
2018,05,31,16,57,18.50
2018,05,31,16,58,18.50
2018,05,31,16,59,18.50
2018,05,31,17,00,18.50
2018,05,31,17,01,18.50
2018,05,31,17,02,18.60
2018,05,31,17,03,18.70
2018,05,31,17,04,18.70
2018,05,31,17,05,18.70
2018,05,31,17,06,18.80
2018,05,31,17,07,18.80
2018,05,31,17,08,18.90
2018,05,31,17,09,18.90
2018,05,31,17,10,18.90
2018,05,31,17,11,18.90
2018,05,31,17,12,19.00
2018,05,31,17,13,19.00
2018,05,31,17,14,19.10
2018,05,31,17,15,19.10
2018,05,31,17,16,19.00
2018,05,31,17,17,19.00
2018,05,31,17,18,18.90
2018,05,31,17,19,18.80
2018,05,31,17,20,18.70
2018,05,31,17,21,18.60
2018,05,31,17,22,18.60
2018,05,31,17,23,18.50
2018,05,31,17,24,18.40
2018,05,31,17,25,18.40
2018,05,31,17,26,18.40
2018,05,31,17,27,18.30
2018,05,31,17,28,18.30
2018,05,31,17,29,18.30
2018,05,31,17,30,18.20
2018,05,31,17,31,18.20
2018,05,31,17,32,18.10